Location: Allen Fire Department Station 4
(33.1073°N, 96.6988°W)
Time: 07:21:57
(UTC+00:00)

Cosmos 1763 Rocket - Pass Details

Date: 03 July 2022
Orbit: 732 x 780 km, 74.0° (Epoch: 09 August)

Event Time Altitude Azimuth Distance (km) Brightness Sun altitude
Exits shadow 07:01:38 32° 49° (NE) 1,298 5.0 -33.5°
Drops below altitude 10° 07:04:39 10° 29° (NNE) 2,310 6.7 -33.4°
Sets 07:07:06 0° 24° (NNE) 3,246 7.8 -33.3°
